Theta_e
289 289 289 289 289 290 290 290 290 290 291 291 291 292 292 293 294 294 295 295 295 295 295 296 297 297 298 298 299 300 300 300 300 299 298 298 297 297 297 297 297 298 297 297 297 296 296 297 297 297 297 296 296 296 295 295 294 294 294 294 294 295 296 296 296 296 296 296 296 296 296 296 296 296 296 296 296 296 296 296 296 296 296 296 295
289 289 289 289 289 289 289 289 289 289 289 289 289 290 290 290 291 291 292 292 293 293 293 293 293 294 295 296 297 298 298 299 299 299 299 298 297 297 296 296 296 297 297 298 298 297 296 296 296 296 296 296 296 296 296 295 295 295 294 294 294 294 294 295 295 295 295 295 295 295 295 296 296 296 296 296 296 296 296 296 296 296 296 296 296
289 289 289 289 289 289 289 288 288 288 288 288 288 288 288 288 288 289 289 290 290 291 291 291 291 291 292 292 293 295 295 296 297 298 298 298 298 297 296 295 295 296 296 296 297 297 297 297 296 295 295 296 296 296 296 295 295 295 295 294 294 294 294 293 294 294 294 294 295 295 295 295 295 295 296 296 296 296 296 296 295 296 296 296 296
289 289 289 289 288 288 288 288 288 288 288 288 288 288 288 288 288 287 288 288 288 289 289 289 290 290 290 290 291 291 292 293 294 295 296 297 297 297 296 295 294 294 294 295 295 296 296 297 296 296 295 295 295 295 295 295 295 295 295 294 294 294 294 293 293 293 293 293 294 294 294 295 295 295 295 295 296 296 295 295 295 295 295 295 295
289 289 289 289 288 288 288 288 288 288 288 288 288 288 288 288 287 287 287 287 287 287 287 288 288 288 289 289 289 289 290 290 291 292 293 294 295 296 297 296 295 294 294 294 294 295 295 296 296 295 295 295 295 295 294 294 295 295 295 294 294 294 294 294 293 293 293 293 293 293 293 294 294 294 295 295 295 295 295 295 295 295 295 295 294
289 289 289 289 289 288 288 288 288 288 288 288 288 288 288 288 288 288 287 287 287 287 287 287 287 287 287 288 288 288 288 289 289 290 290 291 292 294 295 296 296 296 295 295 294 294 294 295 294 294 293 294 294 294 294 294 294 294 294 294 294 294 293 293 293 293 292 292 292 292 293 293 293 294 294 294 294 295 295 295 294 294 294 294 294
290 289 289 289 289 289 289 288 288 288 288 288 288 288 288 288 288 288 288 287 287 287 287 287 287 287 287 287 287 287 287 288 288 288 288 289 290 291 292 293 294 295 296 295 295 294 293 293 293 292 292 293 293 293 293 293 293 293 294 294 293 293 293 293 293 292 292 292 292 292 292 292 293 293 293 293 293 294 294 294 294 294 294 294 294
290 290 290 290 289 289 289 289 289 289 289 289 288 288 288 288 288 288 288 288 288 287 287 287 287 287 287 287 287 287 287 287 287 287 287 287 287 288 289 290 291 292 294 295 295 295 294 293 292 292 292 292 292 292 292 292 292 292 293 293 293 293 293 293 292 292 292 291 291 291 291 292 292 292 292 292 293 293 293 293 294 294 294 294 294
290 290 290 289 289 289 289 289 289 289 289 289 289 289 289 289 288 288 288 288 288 288 288 287 287 287 287 287 287 287 287 287 287 287 286 286 286 286 287 287 288 289 290 291 293 294 294 294 294 293 292 292 292 292 291 291 292 292 292 292 292 292 292 292 292 292 291 291 291 291 291 291 291 291 291 292 292 293 293 293 293 293 293 294 294
289 289 289 289 289 289 289 289 289 289 289 289 289 288 288 288 288 288 288 288 288 288 288 288 288 287 287 287 287 287 287 287 287 287 287 287 286 286 286 286 286 287 287 288 289 291 292 293 294 294 294 293 293 292 292 291 291 291 291 291 291 292 292 292 292 292 291 291 290 290 290 290 291 291 291 291 291 292 292 292 293 293 293 293 293
289 288 288 288 289 289 289 289 289 289 289 289 288 288 288 288 288 288 287 287 287 287 287 287 287 287 287 287 287 287 287 287 287 287 287 287 287 286 286 286 286 286 286 286 287 288 289 290 291 292 293 293 293 293 293 292 292 292 292 291 291 291 291 291 291 291 291 291 291 290 290 290 290 290 290 290 291 291 291 292 292 293 293 293 293
289 289 288 288 288 288 288 288 289 289 289 288 288 288 288 287 287 287 286 286 286 286 286 286 286 286 286 287 287 287 287 287 287 287 287 287 287 287 287 286 286 286 286 286 286 286 286 287 288 289 290 291 292 292 293 293 293 292 292 292 292 291 291 291 291 291 291 291 291 290 290 290 290 289 289 290 290 290 290 291 291 292 292 293 293
288 288 287 287 286 286 286 286 287 287 287 287 287 287 286 286 286 285 285 285 285 285 285 285 285 285 285 285 285 286 286 287 287 287 287 287 287 287 287 287 286 286 286 286 286 286 286 286 286 286 287 288 289 290 291 292 292 292 292 292 292 292 292 291 291 291 290 290 290 291 291 291 290 289 289 289 289 289 289 290 290 291 292 292 293
287 286 286 285 285 285 285 284 285 285 285 285 284 284 284 284 284 283 283 283 283 283 283 284 284 285 285 285 284 284 285 285 286 286 286 286 287 287 286 286 287 286 286 286 286 286 286 286 286 286 286 286 286 287 288 290 291 292 292 292 292 293 292 292 291 291 290 290 290 290 291 291 290 289 289 289 289 289 289 289 290 290 291 292 292
285 285 284 284 283 283 283 282 282 282 282 282 282 282 282 282 282 282 282 282 282 282 282 282 283 283 283 283 284 284 284 285 285 285 285 285 285 286 286 286 286 287 286 286 286 286 286 286 286 286 286 286 286 286 286 287 289 290 291 292 292 293 292 292 292 291 291 290 289 290 290 290 290 290 289 288 288 288 289 289 289 290 290 291 291
284 284 283 283 282 282 281 281 281 281 280 280 280 280 280 280 280 280 280 280 280 280 280 280 281 281 281 282 282 282 283 284 284 284 284 284 284 284 284 285 285 286 286 286 286 286 286 286 286 286 287 286 286 286 285 285 287 289 290 291 292 292 292 293 293 292 291 290 290 290 290 289 289 289 289 289 288 288 288 288 288 289 289 290 290
283 283 282 282 281 281 280 280 279 279 279 279 279 279 279 279 279 279 278 278 279 279 279 279 279 279 280 280 280 281 282 283 283 284 284 284 283 283 283 284 284 285 285 286 286 286 286 286 286 286 286 286 287 286 286 285 286 287 288 289 290 291 292 293 293 292 291 291 291 291 290 289 288 288 288 289 288 288 288 288 288 288 288 288 288
282 282 281 281 280 280 279 278 278 278 278 277 277 277 277 277 277 277 277 277 277 277 277 277 277 278 278 278 279 279 280 281 282 282 282 283 282 282 282 283 283 283 284 285 286 286 286 286 286 286 286 286 286 287 286 286 285 286 287 288 289 290 291 292 292 291 291 291 291 291 291 289 288 288 287 287 288 288 288 288 288 288 288 288 288
281 281 280 280 279 278 278 277 277 276 276 276 276 276 276 276 276 276 276 276 276 276 276 275 275 276 276 276 277 277 278 279 280 280 280 281 281 280 280 281 282 282 283 283 284 285 285 286 286 286 286 286 286 286 286 286 285 285 286 287 288 289 289 291 290 290 290 291 291 291 291 291 290 288 287 287 287 287 287 287 288 287 287 287 287
280 279 279 279 278 277 277 276 276 276 276 276 276 275 275 275 275 275 274 274 274 274 274 273 273 273 274 274 274 275 275 276 277 278 278 278 278 278 279 279 280 280 281 282 282 283 284 285 285 286 286 286 286 286 286 286 286 285 285 286 287 287 287 289 289 290 290 290 290 290 290 291 290 289 288 287 286 286 286 286 287 287 287 287 287
279 279 278 278 277 277 277 276 276 276 275 275 275 275 274 273 272 272 272 271 271 271 271 271 271 271 272 272 272 272 273 274 274 275 275 276 276 277 277 278 278 278 279 280 281 282 283 283 284 285 285 285 286 286 286 286 285 285 285 285 286 285 286 288 289 289 289 288 288 288 288 288 289 289 289 288 287 287 286 286 286 286 286 286 286
278 278 278 277 277 277 277 276 275 275 274 273 273 273 272 271 270 270 269 269 269 269 269 269 269 269 270 270 270 270 271 271 272 273 273 274 274 275 276 276 277 277 278 278 279 280 281 282 283 284 284 285 285 285 286 285 285 285 285 285 285 284 286 288 289 289 288 287 287 287 287 287 287 287 288 288 288 288 287 286 286 285 285 286 286
277 277 277 277 277 276 276 275 275 274 273 271 271 270 270 269 268 268 267 267 267 267 267 267 267 267 268 268 268 268 269 270 270 271 272 272 273 274 275 275 276 277 278 279 279 280 281 282 283 283 283 284 284 285 285 285 285 284 284 284 284 284 286 288 288 288 287 287 287 286 286 287 286 286 287 287 287 287 287 286 286 285 285 285 285
277 277 277 276 276 276 275 274 273 272 271 270 269 269 268 267 267 266 266 265 265 265 265 265 265 265 266 266 266 267 267 268 269 269 270 271 272 272 273 274 275 276 277 279 280 280 281 282 282 282 283 283 283 283 284 284 284 284 284 284 284 285 286 288 288 288 287 287 286 286 286 286 286 286 286 286 286 286 286 286 285 285 285 285 285
277 276 276 276 276 275 274 273 272 271 270 269 268 268 267 266 266 265 265 264 264 264 264 264 264 264 265 265 265 266 266 267 267 268 269 269 270 271 272 273 274 275 276 277 278 280 281 282 282 282 283 283 283 283 283 283 283 283 284 283 284 285 287 287 288 287 287 286 286 286 286 286 286 286 286 286 285 285 285 285 285 285 285 284 284
276 276 275 275 275 274 273 272 271 270 269 268 267 266 266 265 264 264 264 264 264 264 264 264 264 264 264 264 265 265 265 266 266 267 267 268 268 269 270 271 273 274 275 276 277 278 279 281 282 283 283 283 283 283 282 282 282 283 284 284 284 285 286 287 287 287 287 287 286 286 286 286 285 285 285 285 284 284 284 284 284 284 284 284 284
275 275 275 275 274 272 271 270 270 269 268 267 266 265 265 264 263 263 263 263 263 263 263 264 264 264 264 264 265 265 265 265 265 266 266 266 267 267 268 270 271 273 274 275 277 278 279 279 281 283 283 284 284 283 283 282 283 283 284 284 284 284 285 286 287 287 287 287 286 286 286 285 285 284 284 284 284 284 284 283 283 283 283 283 283
275 275 274 273 272 271 269 268 268 268 267 266 265 265 265 264 264 263 263 263 263 263 263 264 264 264 265 265 265 265 266 266 266 266 266 267 267 268 269 269 270 271 272 274 275 277 278 279 280 282 282 283 284 284 283 282 283 283 283 283 283 283 284 285 286 287 287 286 286 286 285 285 284 284 284 283 283 283 283 283 283 283 283 282 282
274 274 274 272 271 269 268 267 268 267 267 266 266 265 265 264 263 263 263 263 263 264 264 265 265 265 266 266 266 267 267 267 267 268 268 268 269 270 270 271 271 272 272 273 274 275 276 277 279 280 282 282 283 283 282 282 282 282 283 283 283 283 283 284 285 286 286 286 286 286 285 284 284 284 283 283 283 282 282 282 282 282 282 282 282
274 274 272 271 269 268 267 268 268 267 267 266 265 264 265 265 264 263 263 263 264 264 265 266 266 266 267 267 267 268 268 268 268 269 269 270 270 271 271 272 272 272 273 274 274 275 275 276 277 278 280 281 281 281 281 281 282 282 283 283 283 283 283 284 285 285 286 286 286 285 285 284 284 283 283 282 282 282 282 282 281 281 281 281 281
273 273 271 269 268 268 268 268 268 267 267 265 263 263 263 265 266 266 264 264 264 264 265 265 266 266 267 267 267 267 268 268 269 269 269 270 270 271 271 272 272 273 273 274 274 274 275 275 276 277 278 279 281 281 281 281 282 282 282 283 283 283 283 283 284 285 285 286 285 285 285 284 284 283 283 282 282 281 281 281 281 281 281 281 280
272 272 270 269 269 269 268 268 267 267 266 264 263 263 262 263 265 265 265 264 264 264 264 265 265 266 266 266 267 267 267 268 268 269 269 269 270 271 271 272 272 273 273 274 274 275 275 275 276 276 277 278 279 281 282 281 281 281 282 282 283 283 283 283 283 284 285 285 285 285 284 284 283 283 282 282 282 281 281 280 280 280 280 280 280
271 271 270 270 269 269 268 268 267 266 265 264 263 263 262 262 262 263 264 264 264 264 264 264 264 265 265 266 266 266 267 267 268 268 269 269 270 271 271 272 272 273 274 274 274 275 275 275 276 276 276 277 278 279 280 281 281 281 281 282 282 282 282 282 283 284 284 285 285 285 284 284 283 282 282 282 281 281 281 280 280 279 279 279 279
271 271 271 270 270 269 268 268 267 266 265 264 264 263 262 262 262 262 263 263 264 265 265 265 265 265 265 265 265 266 267 267 268 268 269 270 270 271 272 272 273 273 274 274 275 275 275 275 275 276 276 277 277 278 279 279 280 281 281 281 282 282 282 282 283 283 284 284 284 284 284 283 283 282 282 281 281 280 280 280 279 279 278 278 278
271 271 271 271 270 269 268 268 267 266 264 264 263 263 262 262 262 263 263 263 263 264 265 267 267 266 265 265 266 266 267 267 268 269 269 270 271 272 272 273 273 273 273 274 275 275 275 275 275 276 277 277 277 278 278 279 280 281 281 281 282 282 282 282 283 283 284 284 284 284 283 283 282 282 282 281 281 280 280 279 279 278 278 277 278
271 271 272 271 270 270 269 268 267 266 265 264 263 263 263 263 263 263 263 264 264 264 265 266 267 268 268 267 267 267 267 267 268 269 270 270 271 272 272 272 273 273 274 274 275 275 275 275 275 276 277 278 278 278 278 279 280 281 282 281 281 282 282 282 283 283 283 284 283 283 283 283 282 282 282 281 281 280 280 279 279 278 277 277 277
271 271 271 271 270 270 269 269 268 268 266 264 264 263 263 263 264 264 264 264 265 265 265 266 267 268 269 270 269 268 269 269 269 270 271 271 272 272 273 273 273 273 274 275 275 276 276 276 276 276 277 278 279 279 279 280 281 282 282 281 281 281 282 282 283 283 283 283 283 283 283 282 282 282 281 280 279 279 278 278 278 277 277 277 277
271 271 271 270 270 269 269 269 269 268 267 266 264 264 264 264 264 264 264 265 265 265 266 266 267 267 269 269 270 269 270 270 271 271 272 273 273 273 273 274 274 274 275 275 276 276 277 277 277 277 277 278 278 279 280 281 282 282 282 282 281 281 282 282 283 283 283 283 283 283 282 282 281 281 280 280 279 278 278 278 277 277 276 276 276
272 272 271 271 270 269 269 269 269 268 267 266 265 264 264 264 264 264 265 265 265 266 266 266 267 268 268 269 269 269 270 270 270 271 271 272 273 273 273 274 274 275 275 276 276 277 277 278 278 278 278 278 279 280 281 281 282 282 282 282 282 282 282 282 282 282 282 282 282 282 282 281 281 280 280 279 279 278 278 277 277 276 276 276 276
272 272 272 271 270 270 269 269 269 268 266 266 265 265 264 264 264 265 265 265 266 266 266 267 267 268 268 269 269 269 269 269 270 270 271 271 272 272 273 274 274 275 275 276 277 277 278 279 279 279 279 279 279 280 281 282 282 282 282 282 282 282 282 282 282 282 282 282 282 282 281 281 280 279 278 278 278 278 278 277 276 276 276 276 276
271 272 272 271 271 270 270 269 269 268 267 266 266 265 265 265 265 265 265 265 265 266 266 267 267 268 269 269 269 269 269 269 270 270 270 271 271 272 273 274 275 275 276 277 277 278 279 280 281 281 280 280 280 281 282 282 282 282 282 282 282 282 282 282 282 282 281 281 281 281 280 280 279 279 278 277 277 277 276 276 275 275 275 275 276
271 271 272 271 271 270 270 269 269 269 268 268 268 267 266 265 265 265 265 265 265 265 266 266 267 268 269 269 268 268 269 270 270 270 271 271 272 273 274 275 276 276 277 277 278 279 280 281 282 282 281 281 281 281 282 282 282 282 282 282 282 282 282 281 281 281 281 280 280 280 280 279 278 278 277 277 276 276 275 275 275 275 275 275 275
270 271 271 271 271 270 270 269 269 269 269 269 269 268 267 266 266 265 265 265 265 265 266 266 267 268 269 269 269 270 271 271 272 272 272 273 273 274 275 276 276 276 277 277 278 279 280 280 281 281 281 281 281 281 281 282 282 282 282 282 282 281 281 281 280 280 280 280 279 279 279 278 277 276 276 276 275 275 275 274 274 274 274 274 274
270 270 271 271 271 270 270 270 270 270 270 270 270 269 268 268 267 267 266 265 265 266 266 266 266 268 269 270 271 271 272 272 273 273 273 273 273 273 274 275 275 276 276 277 277 278 279 280 280 280 280 280 280 281 281 281 281 281 281 281 281 281 280 280 280 280 280 279 279 278 277 277 276 276 275 275 275 275 274 274 274 274 274 274 274
269 270 270 270 270 270 270 270 270 270 270 271 271 270 270 269 268 268 267 266 266 267 267 267 267 268 269 270 271 271 272 273 273 273 273 273 273 273 273 273 274 275 276 276 277 277 278 279 279 279 279 279 279 280 280 280 280 280 280 280 280 280 280 280 280 279 279 278 278 278 277 276 276 275 275 275 275 274 274 274 274 274 274 274 274
269 269 270 270 270 270 270 270 270 270 271 271 271 271 271 270 269 268 267 267 267 267 268 268 268 269 270 270 271 271 272 273 273 274 274 274 274 274 273 273 273 274 275 275 276 277 278 278 278 278 278 278 278 279 279 279 279 279 279 279 279 279 279 279 278 278 278 277 277 277 276 276 275 275 275 275 274 274 274 274 274 274 274 274 274
269 269 269 270 270 270 270 270 270 270 271 271 271 271 271 270 270 269 269 268 268 268 269 269 269 270 270 271 271 272 272 272 273 273 274 274 274 274 274 274 274 274 274 275 276 277 277 277 277 277 277 277 277 277 277 277 277 277 277 277 277 277 277 277 277 276 276 276 276 275 275 275 275 274 274 274 274 274 274 274 274 274 274 274 273
268 269 269 269 270 270 270 270 270 270 270 270 270 270 270 270 270 270 270 269 269 270 270 270 270 270 271 271 271 271 272 272 272 273 273 273 274 274 274 274 274 273 274 274 275 276 276 276 276 276 276 276 276 276 276 276 276 276 276 276 276 276 275 275 275 275 274 274 274 274 274 274 274 274 274 274 274 274 274 274 273 273 273 273 273
268 268 269 269 269 269 269 269 269 270 270 270 270 270 270 270 270 270 270 270 270 270 270 270 270 270 270 271 271 271 271 272 272 272 272 273 273 273 273 273 273 273 273 274 274 274 274 274 274 274 274 274 274 274 274 275 275 275 275 275 275 274 274 274 274 274 273 273 273 273 273 274 274 274 274 274 274 274 273 273 273 273 272 272 272
267 268 268 268 269 269 269 269 269 269 269 270 270 270 270 270 270 270 270 270 270 270 270 270 270 270 270 270 270 270 271 271 271 271 272 272 272 272 272 272 273 273 273 273 273 273 273 273 273 273 273 273 273 273 273 274 274 274 274 274 274 273 273 273 273 273 273 273 273 273 273 274 274 274 273 273 273 273 273 273 272 272 272 272 271
267 267 267 268 268 268 269 269 269 269 269 269 269 269 269 269 270 269 269 270 270 270 269 269 269 269 269 269 269 270 270 270 270 270 271 271 271 271 271 272 272 272 272 272 272 272 272 272 272 273 273 273 273 273 273 273 274 274 274 274 274 273 273 273 273 273 273 273 273 273 273 274 274 273 273 272 272 272 272 272 272 272 271 271 270
Wind_Speed
21 21 21 20 19 18 17 16 15 15 15 15 15 15 15 16 17 19 20 22 23 23 22 22 22 23 23 23 23 22 22 21 21 20 20 21 21 22 23 24 26 27 27 28 28 29 32 34 35 36 36 40 43 46 49 50 52 53 52 51 50 49 47 44 45 45 42 41 40 38 36 34 35 35 34 34 34 32 32 31 31 32 32 31 31
22 23 23 23 23 23 22 21 19 18 17 17 17 17 17 17 17 17 18 19 21 23 23 23 23 23 24 24 24 23 23 22 22 21 21 22 22 22 23 23 25 26 27 28 29 29 31 33 34 34 34 36 39 42 44 46 48 51 52 53 54 54 52 51 50 48 47 45 43 41 40 38 37 37 36 35 34 33 33 33 33 33 32 31 31
21 22 23 23 24 24 25 25 25 24 23 22 21 20 19 19 19 19 18 18 18 20 21 23 24 24 25 25 25 25 25 24 23 23 23 23 23 23 24 25 26 26 26 28 28 28 30 32 33 33 33 35 37 38 40 43 45 48 50 51 53 54 53 53 53 52 51 49 47 46 44 43 42 40 38 36 34 34 35 34 34 34 33 32 32
20 20 21 22 22 23 24 25 26 26 27 27 27 26 25 23 22 22 21 21 21 20 20 21 23 24 25 25 26 26 26 26 26 25 24 24 24 24 25 26 27 28 28 28 28 28 29 31 32 32 32 35 37 37 38 39 42 45 47 49 50 51 51 52 53 53 52 51 51 50 48 47 45 43 40 38 37 36 36 36 36 35 34 33 33
22 22 22 22 22 23 24 25 26 27 28 29 30 30 31 31 30 29 27 26 25 24 23 23 23 24 24 25 26 27 27 27 28 27 26 25 24 24 25 26 27 29 30 30 30 29 30 31 32 31 32 35 37 37 37 38 39 41 44 47 48 48 49 50 52 52 53 53 53 51 49 47 46 45 43 42 40 39 38 38 38 38 37 36 35
22 23 24 25 25 26 27 27 28 29 29 31 31 32 33 34 35 35 34 34 32 31 29 28 27 26 25 25 26 27 28 28 28 29 29 28 27 27 26 26 27 28 29 31 31 31 32 32 32 32 33 35 37 37 36 37 37 38 40 42 44 45 46 48 50 51 52 54 54 52 51 50 48 47 47 46 44 43 43 42 42 41 40 39 38
26 27 27 28 29 29 30 31 32 32 33 34 35 36 36 37 38 38 39 39 39 38 37 35 33 32 30 29 28 27 28 29 29 30 30 30 30 30 30 29 28 28 28 29 30 32 33 34 34 34 34 36 37 36 36 37 38 39 39 39 40 41 43 46 48 49 51 52 53 54 54 53 51 50 49 47 46 46 46 47 47 45 44 42 40
29 29 30 31 32 32 33 34 34 36 37 38 39 40 40 40 41 41 42 43 43 43 43 42 41 40 38 36 34 32 31 30 30 30 31 31 31 32 32 32 32 31 31 30 29 30 31 33 35 36 37 37 37 37 37 37 38 40 40 38 38 39 41 43 45 48 50 51 52 54 54 53 52 51 49 48 49 51 51 50 48 46 45 44 42
28 30 32 34 35 35 36 37 38 39 40 41 42 43 44 44 44 44 44 45 45 46 46 46 47 46 45 43 42 40 38 36 33 31 30 31 31 32 33 33 33 33 33 33 32 31 30 31 33 34 36 38 38 38 37 37 38 41 41 40 39 39 40 42 45 47 49 50 50 52 54 55 55 54 53 54 56 55 53 51 48 47 46 44 43
25 28 31 34 36 38 40 42 43 44 45 46 46 47 48 49 49 49 48 47 46 46 46 47 48 48 49 49 48 47 46 44 41 38 36 33 32 32 32 33 33 34 34 35 35 34 33 32 32 32 33 35 37 37 38 38 38 40 41 41 41 41 42 43 45 47 49 49 50 51 52 56 57 57 57 58 57 56 54 53 51 49 47 46 46
22 25 28 32 36 39 42 44 46 47 48 49 50 51 52 52 53 54 53 52 51 49 48 48 48 48 49 50 51 52 51 50 48 46 44 41 39 36 35 34 34 34 35 36 37 36 35 34 34 33 33 33 34 35 36 37 38 38 39 39 40 42 44 45 46 48 49 50 51 51 52 56 58 57 57 57 56 56 56 55 53 52 51 51 49
25 27 30 33 36 38 40 42 45 47 49 50 51 52 53 54 55 55 55 55 54 53 53 53 53 52 52 52 52 53 53 53 52 51 50 48 46 45 42 40 38 36 35 36 37 37 37 36 35 35 35 34 33 33 34 36 37 37 37 37 37 40 42 45 47 49 50 51 52 52 54 57 57 55 56 56 56 56 56 55 55 55 54 53 52
29 32 34 35 36 37 39 40 42 45 48 49 50 52 53 54 55 55 55 55 55 55 56 56 57 57 56 56 56 55 55 55 55 54 54 52 51 50 49 48 46 43 41 39 38 38 37 37 36 36 35 34 33 33 33 34 34 35 36 36 36 38 40 42 45 48 50 51 53 54 55 56 55 55 55 56 55 56 56 57 56 55 55 55 54
34 36 37 38 38 39 40 41 43 45 47 48 49 50 51 52 53 54 54 54 55 56 57 59 59 59 59 59 59 59 58 58 58 57 56 55 54 53 53 53 52 51 48 45 43 41 40 39 39 38 36 34 33 32 32 33 33 34 35 36 37 38 40 41 43 46 49 52 54 55 55 54 53 53 53 53 54 57 57 57 57 55 54 54 51
39 40 41 41 42 42 42 42 44 45 47 48 48 49 50 50 51 52 52 52 53 55 57 59 60 62 62 61 61 61 61 60 60 60 59 59 58 56 54 55 56 55 54 52 49 47 45 43 42 41 40 37 34 32 31 31 32 34 36 37 37 38 39 42 44 45 48 51 54 56 55 53 52 52 51 51 52 53 53 53 53 52 51 51 51
41 42 44 45 45 45 45 45 46 47 48 49 50 50 51 51 53 53 53 53 54 55 56 58 59 61 62 62 62 63 64 62 61 61 61 61 60 57 54 54 55 56 57 57 55 52 50 48 46 45 44 42 38 34 31 30 32 33 35 37 38 39 39 41 44 45 45 46 49 52 54 53 51 51 52 53 52 48 45 45 47 49 50 52 54
43 45 46 47 47 48 47 48 49 50 50 50 51 51 52 52 53 54 54 55 56 56 57 58 59 59 61 61 61 62 64 64 63 62 61 60 60 56 52 51 51 53 56 59 59 57 55 52 50 49 47 45 43 39 34 31 32 34 35 36 38 39 39 39 41 44 44 44 45 47 49 51 51 51 51 53 55 51 46 46 49 50 52 53 54
46 47 48 48 48 49 49 48 49 50 50 50 50 51 52 52 53 53 54 55 57 58 58 58 58 58 58 59 59 60 62 63 64 63 61 60 59 57 54 52 52 53 55 58 60 60 59 56 53 51 50 48 46 43 38 34 33 34 36 37 38 40 39 37 40 43 44 44 46 46 46 47 50 52 52 52 53 54 53 53 53 52 53 55 55
48 48 49 49 48 48 48 48 48 48 49 50 50 51 51 52 53 53 53 54 55 57 57 56 57 58 57 57 58 58 60 63 64 63 62 62 61 59 56 54 54 54 55 57 59 60 60 60 57 54 51 50 47 45 41 38 35 35 36 37 41 41 39 38 41 42 42 45 47 47 46 46 47 50 52 51 51 52 55 56 55 54 55 56 54
48 49 49 49 49 48 47 48 48 48 49 50 50 51 51 51 52 52 52 52 52 54 55 55 55 57 58 58 58 59 60 62 63 63 62 62 62 59 55 54 54 56 57 57 58 59 59 60 59 56 53 50 49 47 44 40 38 37 37 39 42 40 37 38 41 41 41 44 46 45 46 46 46 48 50 51 51 52 53 53 53 55 56 56 54
48 48 49 49 49 49 49 49 50 50 51 51 52 52 51 49 50 50 49 49 49 50 52 53 53 55 57 57 57 58 58 58 60 61 59 58 59 56 53 54 56 56 57 58 59 60 60 59 59 57 54 51 49 47 46 43 40 38 38 40 41 38 36 39 41 40 41 42 43 43 44 43 44 46 48 51 53 54 54 53 52 54 56 55 55
47 48 49 49 49 50 51 51 52 52 52 51 51 52 50 47 47 46 45 45 45 47 48 48 49 52 54 54 53 53 53 52 53 54 53 52 52 51 52 54 55 54 56 58 59 60 62 61 60 58 55 52 49 47 47 45 42 39 39 40 39 37 37 40 42 41 41 42 41 42 43 43 45 46 47 49 52 54 55 55 54 54 55 55 55
47 47 48 49 50 51 52 52 52 51 51 49 49 49 48 45 44 43 42 42 43 44 45 44 45 49 52 52 51 48 47 46 45 45 46 45 45 45 46 48 48 49 51 53 54 57 59 60 60 59 56 53 49 48 47 45 43 41 41 40 39 37 37 39 41 42 43 42 42 43 44 44 46 47 48 49 50 51 53 55 55 55 55 54 54
46 47 48 49 50 51 51 51 50 49 48 46 46 46 45 43 42 41 40 40 41 43 44 44 44 46 49 50 49 45 44 44 43 42 41 41 41 42 42 43 44 45 47 50 52 54 56 58 59 59 56 53 51 49 47 46 44 42 42 41 39 38 37 38 40 42 43 43 43 44 46 46 47 47 48 48 48 48 49 51 53 54 54 55 55
46 47 48 49 50 50 50 49 48 46 44 43 43 43 42 41 41 41 40 40 41 43 45 44 44 45 47 48 48 45 42 42 41 39 37 37 38 39 40 41 41 42 45 49 51 51 52 53 55 56 55 53 51 49 47 46 44 43 42 41 39 37 37 39 40 41 43 45 45 46 47 47 47 47 46 45 45 45 46 48 50 51 52 54 54
45 47 48 48 48 48 48 47 45 43 42 41 40 41 40 40 41 40 40 41 42 43 44 45 45 46 46 47 47 45 43 41 41 39 37 38 39 39 38 38 38 38 40 43 47 49 51 51 51 51 52 50 48 46 46 45 43 42 41 40 39 38 38 40 41 42 44 45 47 47 48 47 45 45 44 43 44 45 46 48 49 50 52 53 53
45 46 47 48 48 47 46 45 44 43 42 41 41 40 39 39 40 40 41 42 43 43 44 45 45 46 48 49 48 48 47 45 44 43 43 42 42 39 37 37 37 37 37 38 38 40 44 48 50 49 49 47 45 44 44 43 43 43 42 41 40 40 40 41 42 43 44 46 47 47 46 44 43 43 44 44 44 45 46 48 49 50 51 51 51
45 46 46 47 46 45 44 44 44 45 44 42 41 40 39 39 39 40 40 40 42 44 45 45 46 47 48 50 50 50 49 47 46 45 44 42 41 39 38 38 39 40 40 39 38 37 36 39 43 46 47 47 45 44 43 43 43 43 43 43 42 41 41 42 43 44 44 45 46 46 44 43 42 43 44 44 44 45 46 47 48 49 50 49 49
44 45 45 46 46 45 45 45 45 45 45 43 40 39 38 38 38 39 39 39 39 41 43 45 46 47 48 49 49 50 50 48 46 45 43 40 40 41 41 42 43 43 44 42 41 42 41 38 36 37 41 44 43 42 42 43 44 44 44 44 44 42 41 41 43 45 45 45 45 45 43 43 42 43 43 43 43 45 46 47 47 48 48 48 49
44 45 45 45 46 46 45 45 44 44 44 42 41 40 38 37 37 37 39 38 37 37 40 43 44 45 47 48 47 47 48 48 46 43 41 40 40 40 41 41 41 42 43 42 41 42 43 42 39 36 36 39 42 42 42 42 43 44 44 44 44 42 41 41 42 44 45 45 45 45 44 43 43 42 43 43 43 44 45 46 47 47 48 48 49
44 45 45 45 45 45 45 44 43 42 42 41 41 41 41 40 38 37 37 37 37 36 38 39 40 41 43 45 45 44 44 43 42 40 40 39 39 39 39 39 38 39 39 40 41 43 43 43 42 40 37 36 38 40 41 40 41 42 42 43 43 42 41 41 41 42 43 44 45 45 44 44 44 44 43 43 44 44 45 46 46 47 48 49 49
43 44 44 44 44 44 44 43 42 42 42 41 40 40 42 43 43 41 39 38 37 37 37 37 38 38 38 40 42 42 41 39 38 37 37 37 37 36 36 36 36 36 35 36 40 44 43 43 44 44 42 39 37 36 36 36 38 39 39 40 41 41 41 41 41 41 42 44 44 45 45 45 45 45 44 44 44 45 46 46 47 48 48 48 48
41 42 43 44 45 44 43 42 42 41 41 41 41 41 41 43 45 45 44 42 41 40 39 37 37 37 36 37 38 39 38 37 36 36 35 35 35 35 35 35 34 34 34 35 39 43 43 43 45 46 45 44 42 39 36 35 35 36 37 38 39 40 40 40 39 39 41 43 44 45 45 45 45 44 44 44 45 46 47 48 48 48 47 47 48
40 41 42 43 44 44 43 42 41 40 40 40 40 41 41 42 43 45 46 46 45 45 43 40 38 36 36 36 36 36 36 35 34 34 33 32 32 32 33 34 34 33 32 34 37 40 41 42 44 44 44 45 44 42 41 41 39 37 36 37 38 38 38 37 37 38 40 42 44 45 45 45 45 45 44 45 46 46 47 48 48 48 48 48 47
39 40 40 41 42 43 43 41 40 40 39 39 39 40 41 41 42 42 43 44 46 47 47 45 41 38 37 36 34 33 33 33 32 32 31 30 31 31 32 33 34 33 33 34 35 36 37 39 41 41 42 44 44 42 41 41 40 37 35 34 34 35 36 36 37 39 40 42 44 45 44 44 45 45 45 46 47 48 48 49 49 49 48 48 47
39 40 39 39 40 41 41 40 39 38 38 38 38 39 40 40 41 41 42 42 43 45 46 46 43 39 36 33 32 30 30 29 29 28 27 27 27 27 29 31 31 31 31 32 33 33 34 35 38 39 38 39 41 42 41 40 38 36 33 31 31 33 35 36 37 39 40 42 43 44 44 44 44 45 46 47 48 49 49 49 49 49 48 47 47
39 40 39 38 38 39 39 38 36 35 35 36 37 38 39 40 40 41 41 41 42 43 44 45 44 40 35 31 30 31 30 28 27 26 24 24 26 27 28 29 30 30 30 30 31 32 33 33 36 38 37 36 36 38 39 39 38 36 33 30 29 31 34 37 38 39 40 41 42 43 43 43 44 45 47 47 48 48 48 48 48 47 46 45 45
37 38 38 36 36 37 37 37 35 33 33 34 35 37 38 39 40 40 40 41 41 41 42 42 42 41 37 33 31 31 30 29 28 27 26 27 29 31 32 33 32 32 32 30 30 32 33 32 33 36 38 37 35 35 35 35 36 35 33 30 27 29 33 36 38 39 39 40 41 41 42 43 44 46 47 48 47 46 46 46 45 45 44 43 43
36 37 36 35 34 34 35 35 33 32 32 33 34 36 37 38 39 39 39 40 40 40 40 41 39 38 37 35 33 32 32 32 33 33 31 30 31 32 34 34 34 34 34 33 33 33 34 35 34 34 35 35 33 32 33 34 33 31 28 26 25 28 33 36 37 37 38 38 39 40 41 43 44 45 46 46 46 45 44 44 44 44 43 42 41
35 36 36 34 33 33 33 33 32 31 31 32 33 34 35 36 36 37 37 38 39 38 39 39 38 36 35 34 32 32 33 36 36 35 34 33 33 33 33 33 33 34 34 33 33 34 35 35 32 28 26 28 29 30 32 32 29 25 24 23 24 28 33 35 36 36 36 37 39 40 41 42 43 44 44 44 43 43 42 41 41 42 41 40 40
33 35 35 34 32 33 33 32 32 31 30 30 31 32 32 33 33 34 34 35 36 37 37 37 37 35 33 32 31 30 32 34 33 32 32 32 32 31 30 29 30 30 29 29 30 31 30 27 24 21 22 25 27 27 27 27 25 23 23 23 25 29 33 34 34 35 36 37 38 38 39 40 41 42 42 41 40 40 39 38 38 38 38 37 38
32 34 34 33 32 32 32 32 32 31 30 30 29 29 30 30 30 31 31 32 33 34 34 34 34 33 32 31 29 28 28 28 28 28 28 28 27 26 24 24 25 26 26 26 27 25 22 18 16 15 16 17 18 16 16 18 19 19 21 24 28 31 33 33 33 34 34 35 36 36 37 38 38 39 39 39 38 37 36 35 36 36 36 36 35
31 32 32 31 30 30 31 31 31 31 31 30 28 28 28 28 28 28 28 29 30 30 31 31 32 31 30 28 26 24 24 24 25 25 25 24 23 21 20 20 22 23 23 23 22 19 16 13 12 10 9 9 9 9 10 13 16 18 22 27 30 31 31 31 31 32 33 33 34 34 35 35 36 36 36 36 35 34 34 34 35 35 34 33 33
29 30 30 28 28 28 29 29 30 30 31 30 29 27 26 26 26 26 26 27 28 28 28 29 30 30 28 26 25 24 24 24 24 24 24 23 22 20 19 18 19 20 21 21 19 17 14 13 12 12 11 11 10 10 12 14 17 20 23 25 26 27 27 28 29 30 30 31 32 32 33 33 33 33 33 33 32 33 33 33 34 33 32 32 31
28 28 29 28 27 27 27 28 29 30 30 30 29 28 26 25 25 25 25 26 27 28 27 27 28 28 27 26 25 24 24 24 24 23 23 23 23 22 21 19 18 18 18 18 18 17 15 14 13 13 12 12 12 13 14 15 17 19 20 21 22 23 24 25 26 27 27 28 29 30 31 31 31 30 30 31 31 32 32 32 32 31 31 30 29
26 27 28 28 27 27 27 27 28 29 29 30 30 29 27 26 25 25 25 26 27 28 27 27 27 27 26 26 25 24 23 23 22 22 22 22 22 22 21 21 20 18 16 15 15 15 14 14 14 13 13 12 12 12 13 14 14 15 16 17 18 19 19 20 21 22 23 24 25 26 28 28 28 28 29 30 31 31 31 30 29 29 28 27 26
25 26 26 27 27 26 26 26 27 28 28 29 29 29 28 27 26 25 25 25 26 27 27 27 27 27 27 26 26 25 24 23 22 21 20 19 19 19 19 19 18 18 16 14 12 11 10 11 11 12 12 11 10 9 9 10 10 12 13 13 12 12 12 13 15 17 19 20 21 23 24 26 27 28 30 31 31 30 29 28 27 26 25 24 23
24 25 25 25 25 25 25 26 26 27 28 28 29 29 29 28 27 26 26 26 27 27 28 29 29 29 29 28 28 28 27 26 25 24 21 19 18 17 17 17 17 16 15 13 12 11 11 11 12 12 12 11 9 7 6 5 4 5 5 5 4 4 5 7 9 12 15 17 19 21 22 24 27 30 30 30 29 28 27 27 26 24 23 22 21
23 23 24 24 24 24 24 25 26 26 26 27 28 28 28 28 28 28 27 27 28 28 29 29 30 31 31 31 31 31 31 30 29 27 25 23 22 21 20 19 19 17 16 16 15 15 15 15 14 13 12 11 10 8 6 5 3 2 2 3 3 3 2 3 5 9 12 15 18 21 23 26 28 29 28 27 27 26 25 24 23 22 21 20 20
21 22 22 23 23 23 23 23 23 24 25 25 26 27 27 28 28 28 28 28 28 29 29 29 30 30 30 31 31 32 32 32 32 31 30 29 28 27 26 25 24 23 23 23 22 21 20 19 18 17 16 14 13 11 10 9 8 7 6 6 6 7 8 8 8 10 12 15 19 22 25 26 27 26 26 25 24 24 23 22 21 20 19 19 19
20 20 21 21 21 22 22 22 22 23 23 24 25 25 26 26 27 27 27 27 27 27 27 27 28 28 28 29 29 30 30 30 30 31 31 31 30 30 29 29 28 27 27 26 26 25 24 23 23 22 21 20 19 18 17 16 16 15 14 14 14 14 14 14 14 14 15 17 19 21 22 23 23 24 24 23 22 21 21 20 19 18 17 16 16
Wind_Direction
17 17 17 18 17 18 18 17 13 9 4 358 354 349 344 340 336 335 335 334 334 335 335 334 332 329 328 328 328 327 326 326 323 318 311 304 297 292 288 283 279 276 274 271 268 267 267 265 263 261 258 257 255 253 251 249 247 245 244 243 242 241 240 240 243 247 249 250 250 250 249 248 246 246 245 244 244 243 242 241 241 242 244 245 245
8 7 5 5 3 3 3 3 2 0 358 354 351 348 345 342 338 333 330 328 329 331 332 332 331 329 327 325 324 323 322 321 320 317 314 310 306 300 294 289 284 280 277 274 272 270 269 268 267 266 263 261 259 256 255 253 250 248 247 245 244 243 241 241 243 247 248 249 248 248 247 245 244 244 243 243 243 243 242 240 239 240 242 243 243
1 358 358 357 356 355 354 352 352 351 349 348 347 345 343 340 338 335 332 328 325 324 324 325 326 326 326 325 323 322 320 319 317 315 313 311 308 305 300 295 290 286 281 277 275 272 270 270 269 269 267 264 262 259 257 255 253 252 250 248 246 246 245 243 244 246 248 248 248 247 246 244 244 244 243 242 242 241 241 241 240 240 240 241 241
352 350 349 349 348 347 346 344 343 342 342 341 340 339 338 336 334 333 332 330 327 324 321 318 317 317 318 319 320 321 320 318 317 315 313 310 307 304 300 296 292 290 287 283 280 276 273 271 271 271 270 267 264 262 260 257 255 253 252 250 248 247 247 246 246 246 246 247 247 247 247 246 246 245 243 239 237 238 240 240 239 238 239 239 239
344 342 340 340 340 339 337 336 334 333 333 333 332 332 332 331 331 329 328 326 325 324 322 319 316 313 312 312 313 314 315 315 314 314 313 311 307 304 300 296 292 290 288 287 285 282 278 274 273 272 270 268 266 264 262 259 257 255 254 252 250 249 248 247 246 246 245 245 246 247 246 245 244 243 241 239 237 236 236 237 237 237 236 235 235
337 337 336 336 335 335 333 332 330 329 329 328 327 326 326 326 325 325 324 323 322 321 319 317 316 313 311 310 309 308 308 309 309 309 309 308 306 304 301 297 294 292 289 288 286 284 282 278 276 273 270 268 267 266 264 262 260 257 255 254 252 250 249 248 247 245 244 244 244 245 245 243 241 240 239 238 238 237 237 235 235 234 233 232 232
333 333 333 333 333 333 332 330 329 328 326 326 325 324 324 323 321 320 319 319 318 318 316 315 314 312 310 308 307 306 305 304 305 305 306 305 304 303 301 299 296 293 291 289 286 283 281 279 276 273 270 268 267 266 265 264 262 260 257 255 253 251 249 249 247 245 244 242 242 242 243 243 242 241 240 239 238 238 237 235 234 232 231 230 231
329 329 329 329 329 328 327 327 326 325 324 323 322 321 321 320 318 317 316 315 314 314 313 313 312 311 309 307 305 303 301 300 300 302 302 303 302 301 300 299 297 294 292 290 288 285 283 279 276 273 270 269 267 266 264 262 262 261 260 256 253 250 249 249 247 246 244 242 240 241 242 242 241 239 237 235 233 233 234 234 235 235 234 233 232
321 322 323 324 324 324 323 323 322 321 320 320 319 318 317 317 315 314 312 312 311 310 310 310 309 309 308 307 306 304 301 299 298 297 297 297 298 298 298 297 296 295 292 290 288 287 286 284 282 279 275 272 269 266 263 261 259 260 259 257 253 251 249 248 246 245 244 242 240 239 240 240 239 237 234 233 233 234 235 235 235 236 236 236 235
313 314 316 318 319 320 320 319 319 318 318 318 318 317 316 316 314 313 312 311 309 308 307 305 305 305 306 305 305 303 302 300 299 297 295 292 292 292 292 292 293 293 292 291 290 288 288 287 287 287 285 280 275 270 266 261 258 257 257 256 255 253 250 248 246 244 242 241 240 238 237 238 238 237 236 237 237 237 236 236 235 234 233 233 233
303 304 308 311 314 315 315 315 315 315 315 315 315 315 314 313 312 312 311 311 310 308 307 304 303 302 302 301 301 301 300 300 299 298 296 294 292 290 288 287 288 289 290 291 290 289 288 287 287 287 287 286 284 280 275 269 264 260 257 255 254 253 251 248 246 244 241 240 239 238 237 239 240 238 238 238 238 237 237 237 235 234 232 230 231
295 297 302 306 308 310 311 311 310 309 309 310 310 310 309 309 308 308 308 308 307 306 305 304 303 302 300 299 298 297 297 296 296 296 296 295 294 292 290 288 285 285 285 287 288 289 289 288 286 284 284 285 287 287 284 279 274 269 264 259 254 252 251 249 247 245 242 241 240 237 236 239 240 239 238 238 237 237 237 236 234 234 233 233 234
296 299 303 307 308 309 309 308 308 307 306 306 306 306 305 304 303 303 303 303 302 301 300 300 299 299 299 298 297 296 295 294 293 293 293 293 292 291 291 289 287 285 283 282 283 284 286 287 287 284 283 283 284 285 285 285 282 278 273 266 259 253 250 249 248 247 245 244 242 240 239 238 238 239 240 240 238 237 235 234 234 233 233 235 237
304 307 309 311 311 310 310 308 307 306 305 304 303 302 301 300 300 299 298 297 297 296 296 295 294 294 293 293 293 292 292 292 292 291 291 290 290 289 288 287 286 285 283 281 279 279 280 283 285 285 284 282 282 282 284 285 285 283 278 274 267 259 252 249 247 246 245 244 244 244 244 241 238 239 241 241 241 239 237 236 235 234 235 239 242
311 312 312 312 312 310 308 306 304 302 301 299 298 297 296 295 295 294 293 293 292 292 292 291 291 291 290 290 289 287 286 286 287 288 288 288 288 287 285 284 283 283 282 281 279 277 277 278 280 282 283 284 283 283 283 284 284 282 279 276 273 267 260 254 249 246 244 243 244 245 246 244 240 239 240 242 243 244 243 243 243 242 243 243 243
311 311 311 310 309 307 305 303 301 300 298 297 295 294 293 292 291 290 289 290 289 289 288 288 288 288 288 288 288 286 285 284 283 282 283 284 284 285 284 282 281 280 280 280 279 278 277 276 276 277 279 282 284 284 284 283 281 280 279 277 275 272 267 260 255 251 248 245 245 246 246 245 243 240 239 240 242 244 244 243 242 241 240 239 238
310 310 310 309 308 307 306 304 303 303 302 300 299 298 296 295 294 292 291 290 289 288 287 286 286 286 286 286 285 285 285 285 284 282 281 280 280 280 280 279 278 277 277 278 278 278 277 276 275 275 276 277 279 282 284 282 277 276 276 276 275 273 271 267 262 258 254 249 247 247 247 246 244 242 241 240 241 241 239 238 237 236 235 234 234
312 311 311 311 310 309 308 308 307 307 306 304 303 302 300 298 297 295 293 291 290 289 287 286 285 284 283 282 282 281 282 283 283 282 281 280 278 276 275 276 275 275 275 275 276 276 276 276 275 274 274 274 274 277 281 280 275 272 272 274 273 271 273 273 268 263 260 255 250 247 245 244 243 242 241 240 240 240 238 237 237 235 233 233 234
314 314 313 313 312 311 312 311 310 309 307 306 304 302 300 299 297 296 293 291 289 289 287 286 284 284 282 281 280 279 278 279 279 279 278 278 277 275 274 273 273 273 273 273 274 273 274 274 274 272 272 272 272 273 275 277 275 271 270 271 268 269 274 275 269 265 264 260 255 250 246 242 240 239 239 238 238 240 240 239 238 235 233 233 231
316 315 314 314 314 314 314 312 311 310 308 307 305 303 302 300 299 297 295 293 291 289 288 286 284 284 283 281 280 278 277 277 277 277 276 275 275 274 273 272 270 270 270 271 272 272 272 272 272 271 270 270 270 271 271 273 273 272 269 266 265 270 277 275 269 268 267 262 258 256 252 247 242 239 238 236 234 235 238 238 237 235 234 232 229
316 315 315 315 316 315 315 314 314 313 312 310 309 306 305 304 302 300 299 297 294 292 291 290 288 287 285 283 281 279 278 277 277 277 276 275 275 274 272 271 271 270 270 270 270 270 270 270 269 269 269 269 269 269 269 270 271 270 267 266 267 273 276 272 268 269 267 262 259 258 255 252 248 244 241 238 235 233 233 234 233 233 233 231 229
317 316 317 317 317 317 317 317 317 315 314 313 312 309 308 307 306 304 302 300 298 297 296 296 295 293 290 287 285 283 282 281 280 279 278 277 276 275 273 272 272 272 271 270 269 268 267 267 267 267 267 267 267 266 267 269 270 268 267 268 271 272 271 268 267 266 263 260 258 256 253 252 249 246 243 241 238 235 233 233 232 232 232 232 232
317 317 317 318 318 319 319 319 318 317 316 316 314 312 312 311 310 308 307 305 303 302 301 300 298 296 294 292 290 288 287 285 283 282 282 281 280 278 276 274 273 272 270 268 267 266 265 264 264 265 265 265 264 264 265 266 268 268 268 269 270 269 267 264 263 261 259 257 255 253 252 251 248 246 244 242 240 237 234 233 232 232 232 232 232
317 317 318 319 320 320 320 319 319 319 319 319 317 315 315 314 313 311 309 306 304 302 302 301 299 297 296 295 295 294 292 290 289 287 286 285 284 282 281 278 275 272 269 267 266 266 264 263 263 264 264 264 263 265 266 265 264 265 266 267 266 264 261 259 258 256 255 253 250 250 250 249 247 246 245 244 241 238 236 234 233 232 232 232 231
318 318 320 321 321 321 321 321 321 321 321 321 319 317 317 315 312 310 307 304 301 300 300 300 299 297 296 296 296 297 296 295 295 294 292 290 289 288 286 284 280 276 272 268 265 263 262 263 264 264 264 265 266 266 265 262 261 261 262 262 260 257 254 254 253 252 250 249 248 248 248 248 248 247 247 245 242 239 236 233 231 229 229 229 228
319 320 321 322 323 324 324 323 323 323 323 323 321 318 316 313 310 307 305 302 299 298 298 298 297 296 296 296 296 296 296 296 295 294 294 293 292 291 289 287 285 282 278 274 269 264 261 261 262 263 262 263 263 262 260 260 260 259 257 256 254 251 249 248 247 246 246 246 246 246 247 247 247 246 245 243 240 237 235 231 228 226 226 226 226
320 321 323 325 326 327 325 325 325 326 325 324 322 319 316 312 307 304 302 301 299 298 297 297 297 296 296 297 297 298 297 297 296 296 296 296 296 295 293 290 287 285 284 283 280 275 267 261 259 259 260 260 258 257 257 259 258 255 252 252 250 247 244 243 243 244 245 246 246 246 247 245 243 243 242 239 236 235 233 230 227 225 224 223 223
321 324 327 328 328 328 327 328 328 327 325 323 321 319 317 314 309 306 304 303 301 300 299 298 298 298 298 298 299 298 297 297 298 298 299 298 296 296 296 295 293 291 288 287 288 288 283 271 261 256 255 254 253 253 254 255 253 251 249 250 249 246 242 241 241 243 245 246 246 245 244 242 240 240 239 236 233 231 229 228 226 224 222 220 219
324 327 329 330 330 330 330 330 329 326 324 322 320 319 319 317 312 307 306 304 300 297 297 297 296 297 297 296 297 297 296 296 298 298 297 294 291 291 291 291 292 292 290 289 289 290 291 287 275 263 255 252 251 252 252 250 249 248 247 247 246 245 241 239 238 240 241 243 243 241 239 238 237 237 235 233 230 228 227 226 223 221 220 219 218
327 329 331 332 333 333 330 329 328 325 322 321 320 319 321 322 316 308 305 304 298 293 292 292 293 295 295 294 294 294 294 295 297 296 294 291 290 289 288 287 288 288 288 289 289 286 285 284 281 275 266 258 253 251 250 249 247 246 245 244 243 243 241 238 238 239 239 240 240 239 237 235 233 232 231 228 226 224 224 223 221 220 218 216 215
328 331 334 334 334 333 330 329 328 325 323 322 320 318 319 321 321 317 314 309 303 297 295 294 294 294 294 294 295 294 294 295 296 295 293 292 291 290 289 288 287 286 285 287 286 284 281 280 279 277 274 268 259 251 247 246 246 245 243 242 241 241 240 239 238 238 238 238 239 238 236 234 232 230 228 225 223 222 221 219 218 218 218 216 214
330 334 336 335 335 334 331 329 328 325 324 323 322 319 317 317 318 320 321 317 311 306 303 301 299 298 297 296 297 297 298 298 297 296 296 295 293 291 290 289 287 286 284 282 280 279 279 279 278 276 274 271 266 257 249 245 245 246 245 243 241 239 238 238 238 238 237 237 237 236 235 233 232 229 227 225 223 221 220 218 217 217 216 215 215
334 337 338 337 336 334 332 330 328 326 325 324 322 320 318 314 313 316 319 321 320 317 313 309 306 304 302 300 299 299 300 300 300 299 298 296 295 293 291 290 289 287 285 280 277 276 276 276 276 275 273 271 268 263 258 254 252 250 248 246 243 241 241 240 238 237 237 237 237 236 234 232 229 226 224 223 223 222 220 219 218 217 214 212 212
338 340 341 339 336 333 332 330 327 326 326 325 322 319 317 315 313 313 315 318 321 324 324 323 319 313 309 306 304 303 303 303 302 301 300 299 298 296 294 292 292 290 286 283 280 278 276 275 274 274 274 272 268 264 262 260 256 252 249 247 245 244 244 242 239 238 238 237 235 234 233 230 227 224 222 220 220 220 219 218 217 215 212 211 211
341 343 343 340 336 333 331 329 328 327 326 324 323 320 317 316 315 314 314 315 316 319 324 328 331 327 321 316 313 309 307 305 303 302 301 300 299 300 300 299 298 297 294 290 285 282 279 276 274 273 274 271 266 262 261 258 252 247 246 246 245 245 244 243 241 239 238 235 234 233 231 229 226 224 223 222 220 217 216 216 216 215 213 211 211
344 345 344 341 337 333 331 329 329 329 327 326 324 321 318 317 316 315 315 315 315 316 319 324 330 334 332 329 327 323 319 315 311 308 306 305 304 303 301 300 301 302 300 294 289 286 283 279 275 274 275 272 265 260 258 254 248 244 244 245 246 247 245 243 241 239 235 233 232 231 229 227 225 224 223 221 220 218 217 216 216 215 213 212 212
347 346 344 341 337 334 331 330 330 330 330 328 326 323 321 320 318 317 316 316 316 317 319 322 327 332 336 340 340 336 332 328 325 323 323 323 322 319 315 311 308 307 304 299 293 288 286 284 280 276 275 274 268 263 259 252 243 240 243 246 249 250 248 244 242 238 234 231 230 229 228 227 224 223 221 218 215 214 213 213 214 213 212 212 211
348 347 345 342 338 334 331 330 331 333 333 332 330 327 324 322 321 319 318 318 318 318 320 323 325 328 332 339 343 341 338 335 334 335 337 337 335 332 328 324 320 314 310 306 299 292 288 286 282 276 275 276 274 268 260 248 237 237 243 248 252 252 248 243 239 236 233 231 229 228 227 225 222 221 219 216 214 212 211 212 212 210 208 208 209
350 348 346 343 340 336 333 332 334 335 335 334 332 330 327 325 324 322 320 320 320 320 321 324 326 329 332 336 340 343 340 335 333 332 332 334 335 333 330 327 324 320 316 312 306 298 292 288 284 280 276 273 271 267 258 246 238 238 242 246 249 249 244 238 234 231 229 228 228 226 224 222 220 218 217 215 214 214 213 212 212 211 208 208 208
351 350 348 345 343 340 337 337 337 337 336 335 334 331 329 327 326 325 324 322 321 322 323 324 327 331 335 337 340 340 331 325 324 324 324 326 328 327 325 323 319 316 315 311 306 303 299 294 288 280 269 266 267 265 255 245 241 243 246 248 249 248 243 237 233 231 228 226 225 224 222 220 218 215 213 213 213 214 214 213 211 210 210 210 209
351 350 349 348 345 343 343 342 341 339 338 337 336 334 333 331 330 329 328 327 325 324 325 325 328 333 337 340 342 336 324 318 319 321 320 319 319 319 319 318 315 315 317 315 313 314 314 307 292 274 263 263 265 260 248 239 240 247 251 251 249 245 240 235 231 229 226 224 223 222 220 219 217 214 212 211 211 212 212 211 209 207 207 207 207
351 350 350 350 349 348 348 346 344 342 340 339 340 339 337 336 335 334 332 332 331 329 328 329 332 335 338 340 339 331 322 320 321 320 317 317 318 320 322 321 319 321 324 323 323 325 328 322 304 284 274 272 269 260 249 247 250 252 251 248 243 238 233 230 226 224 223 221 221 220 219 217 215 212 211 210 209 209 208 207 206 205 203 203 203
350 350 351 352 353 353 353 351 349 346 344 343 343 344 342 341 341 340 338 338 337 336 335 335 336 337 339 340 337 334 332 332 331 328 325 324 326 330 334 334 331 330 328 328 328 330 332 334 332 325 315 304 292 280 273 269 265 259 252 245 238 232 229 227 224 223 221 220 219 218 216 214 211 209 208 208 207 206 204 203 202 201 199 198 197
349 349 351 353 356 357 357 356 353 351 349 347 347 347 348 347 346 346 346 345 345 344 344 342 341 342 343 344 345 346 348 348 345 342 339 336 336 339 340 341 342 340 337 335 335 333 333 337 340 337 331 322 307 291 279 270 262 256 251 245 238 233 231 229 228 225 223 221 219 216 213 211 209 207 206 206 204 202 199 198 197 195 194 193 192
350 350 351 354 357 359 359 359 358 356 355 354 352 352 352 353 353 353 353 352 353 353 353 351 351 351 351 352 354 357 0 0 359 357 354 353 352 350 347 345 346 346 346 345 341 336 335 338 338 334 330 322 310 296 282 268 257 251 247 243 239 236 233 231 230 228 226 223 220 216 212 209 207 205 203 201 200 198 195 193 192 191 189 189 189
351 352 353 354 356 358 360 1 3 3 2 1 359 358 358 359 360 1 2 2 1 1 0 1 1 1 1 1 3 5 8 9 8 6 4 2 0 357 355 353 351 348 349 350 347 343 343 343 342 340 337 327 313 297 281 267 257 250 245 240 238 238 238 238 236 230 226 224 221 216 211 206 203 201 199 195 193 192 190 188 188 188 187 187 186
352 355 356 356 356 358 0 2 5 7 9 10 8 6 5 5 7 10 14 14 11 10 9 10 12 12 12 13 13 14 15 14 12 10 8 6 4 2 1 0 359 357 357 358 358 358 1 1 2 3 360 349 332 311 290 273 260 252 246 242 242 245 249 247 240 230 225 222 218 213 208 202 196 193 192 188 186 186 185 183 183 183 182 183 182
353 355 357 358 359 359 1 3 6 9 13 15 16 15 15 14 15 18 21 22 22 21 21 22 24 25 26 26 26 25 24 22 19 17 14 12 12 13 11 10 11 12 11 12 15 21 26 28 29 28 25 19 10 354 331 308 281 261 250 241 240 247 254 250 237 225 217 212 207 204 202 196 189 186 184 183 182 181 179 178 178 177 177 178 178
355 356 357 360 1 2 2 3 6 9 13 17 20 21 23 23 23 24 27 29 31 32 32 33 33 34 34 34 35 35 34 34 32 30 28 27 28 30 30 29 30 31 32 35 37 39 39 38 39 40 41 42 41 39 38 40 51 73 105 130 151 164 171 194 207 204 199 197 195 193 190 186 182 179 178 177 176 174 173 172 172 171 172 174 176
356 357 358 360 3 4 4 4 6 8 11 15 19 22 25 27 28 29 30 32 34 35 36 36 37 37 37 37 37 38 38 39 39 39 40 40 41 42 44 45 46 47 49 50 51 51 51 51 52 54 56 58 60 64 68 72 79 90 102 114 123 128 131 138 152 165 172 176 179 180 180 178 175 172 171 170 169 167 167 167 168 169 171 173 175
355 357 359 1 3 5 5 5 6 7 10 14 17 19 22 26 29 30 31 31 33 34 35 36 37 38 39 39 39 40 41 42 42 43 44 44 45 45 47 49 50 52 53 55 57 59 61 63 64 66 67 69 70 73 76 78 81 85 91 97 103 108 114 123 134 144 153 160 166 170 171 169 166 164 163 162 162 161 162 164 165 167 169 171 174